STARLINK-2648, 48679

Orbit data source: Space-Track

STARLINK-2648, 48679 is a payload satellite owned by SpaceX/Seattle (US) in LEO that was launched on Wed, 26 May 2021 UTC via an FALCON 9 launch vehicle from the Air Force Eastern Test Range (AFETR). Payload-class satellites include a variety of spacecraft equipped with specific instruments for various scientific and technological missions. These include communications satellites like Starlink; space stations such as the ISS; scientific satellites like the Hubble; Earth observation satellites from companies like Planet Labs, Umbra, and HawkEye 360; GPS; miniature CubeSats for education and research; and military/defense satellites.

Loading next visibility...
Identifier
48679, 2021-044AT
Orbit
LEO
Country
Flag of USUS
Related business
Manufacturer
SpaceX/Seattle
Mission
Operational Commercial Communications
Bus & Motor
STARLINK, Unknown motor
Mass
260 kg wet, ~248 kg dry
Launch date (UTC)
2021-05-26 (5 years ago)
Launch vehicle
FALCON 9
Launch site
Air Force Eastern Test Range (AFETR)
Object type
Payload
Rocket body
Debris
Shape & HBR
Box + 1 Pan, 10.1 m
Radar Cross Section
13.562 m², Large (>1 m²)

Expand to show TLE details & history
Last TLE update: 3 days ago

TLE from 3 days ago
0 STARLINK-2648
1 48679U 21044AT  26170.92301185  .00002375  00000-0  94617-4 0  9998
2 48679  53.1611 359.1621 0001147  86.1046 274.0085 15.29351697279460
Epoch: 2026-06-19T22:09Z
TLE epoch observation values (Epoch: 2026-06-19T22:09:08.223Z)
Latitude
-0.00008°
Longitude
118.73275°
Altitude
478.594 km
Speed
7.628 km/s
True Right ascension
23h 56m 38s
True Declination
0° 00' 00"
Sunlit
Object was in daylight at epoch
Visualization orbit readout
Latitude
Unknown
Longitude
Unknown
Altitude
Unknown
Speed
Unknown
Apparent Right ascension
Unknown
Apparent Declination
Unknown
Sunlit
N/A
Visualization observer readout
Local Sidereal Time
21:36:43
Azimuth
Unknown
Elevation
Unknown
Doppler factor
Unknown
Orbital elements
Apogee altitude
478.792 km
Perigee altitude
477.219 km
Semi-major axis
6,856.142 km
Eccentricity
0.00011
Inclination
53.1611°
RAAN
359.1621°
Arg. of periapsis
86.1046°
True anomaly
273.99539°
Mean anomaly
274.0085°
Eccentric anomaly
274.00194°
Mean motion
3.82317 °/min
Orbital period
94.16 mins
BSTAR
0.000094617
Loading maneuver chart data...
Computing Atmospheric mass density...

Documentation

Showing up to 5 results
|